This demonstration page uses our WeatherBlox Daily Observations layout. Learn more.

Left ArrowRight Arrow

44.31136, -96.79839

Hourly Observations for May 15, 2022

Temp ( °F °C ) Dew Point ( °F °C ) Humidity (%) Winds ( mph kmh ) Pressure ( in mb ) Visibility ( mi km ) Precip ( " mm )
12:56 am 00:56 Clear 48 8.9 40 4.4 74 74 SW 6 9 30.05 1018 10 16 0.00 0.00
1:56 am 01:56 Clear 48 8.9 40 4.4 74 74 SW 3 6 30.04 1017 10 16 0.00 0.00
2:56 am 02:56 Clear 46 7.8 39 3.9 77 77 SSW 3 6 30.04 1017 10 16 0.00 0.00
3:56 am 03:56 Clear 45 7.2 41 5 86 86 Calm 30.05 1018 10 16 0.00 0.00
4:56 am 04:56 Clear 43 6.1 38 3.3 82 82 Calm 30.06 1018 10 16 0.00 0.00
5:56 am 05:56 Clear 43 6.1 39 3.9 86 86 Calm 30.06 1018 10 16 0.00 0.00
6:56 am 06:56 Sunny 46 7.8 38 3.3 73 73 Calm 30.07 1018 10 16 0.00 0.00
7:56 am 07:56 Sunny 51 10.6 44 6.7 77 77 Calm 30.08 1019 10 16 0.00 0.00
8:56 am 08:56 Sunny 55 12.8 44 6.7 67 67 WSW 3 6 30.09 1019 10 16 0.00 0.00
9:56 am 09:56 Sunny 66 18.9 39 3.9 37 37 WNW 9 15 30.08 1019 10 16 0.00 0.00
10:56 am 10:56 Sunny 66 18.9 36 2.2 33 33 WNW 9 15 30.08 1019 10 16 0.00 0.00
11:56 am 11:56 Sunny 69 20.6 33 0.6 26 26 W 18 30 30.07 1018 10 16 0.00 0.00
12:56 pm 12:56 Sunny 70 21.1 36 2.2 29 29 W 23 37 30.06 1018 10 16 0.00 0.00
1:56 pm 13:56 Mostly Cloudy 69 20.6 38 3.3 32 32 WNW 22 35 30.05 1018 10 16 0.00 0.00
2:56 pm 14:56 Cloudy 70 21.1 37 2.8 30 30 WNW 21 33 30.03 1017 10 16 0.00 0.00
3:56 pm 15:56 Partly Cloudy 74 23.3 35 1.7 24 24 WNW 18 30 30.01 1016 10 16 0.00 0.00
4:56 pm 16:56 Mostly Cloudy 69 20.6 35 1.7 29 29 WNW 20 31 30.01 1016 10 16 0.00 0.00
5:56 pm 17:56 Partly Cloudy 73 22.8 37 2.8 27 27 NW 17 28 30.00 1016 10 16 0.00 0.00
6:56 pm 18:56 Mostly Sunny 70 21.1 38 3.3 31 31 NW 17 28 30.00 1016 10 16 0.00 0.00
7:56 pm 19:56 Partly Cloudy 67 19.4 37 2.8 33 33 NW 14 22 30.00 1016 10 16 0.00 0.00
8:56 pm 20:56 Clear 59 15 38 3.3 46 46 NW 8 13 30.01 1016 10 16 0.00 0.00
9:56 pm 21:56 Clear 56 13.3 39 3.9 53 53 WNW 6 9 30.01 1016 10 16 0.00 0.00
10:56 pm 22:56 Clear 53 11.7 41 5 64 64 W 3 6 30.03 1017 10 16 0.00 0.00
11:56 pm 23:56 Clear 51 10.6 40 4.4 66 66 WNW 5 7 30.02 1017 10 16 0.00 0.00

Powered by AerisWeather